Connexion S'enregistrer

Connexion à votre compte

Identifiant
Mot de passe
Maintenir la connexion active sur ce site

Créer un compte

Pour valider ce formulaire, vous devez remplir tous les champs.
Nom
Identifiant
Mot de passe
Répétez le mot de passe
Adresse e-mail
Répétez l'adresse e-mail

URGENT! L'Aéroclub recherche de nouveaux instructeurs.

Prise de fonction immédiate.

 

L’Aéroclub de Savoie recherche FIAs qualifiés, bénévoles (préférés) ou auto-entrepreneurs, sans expérience prérequise, pour BB et PPL.

Qualif montagne et vol nuit bienvenues.

Souhait d’une implication pédagogique au-delà de l’acquisition d’expérience.

Bénévoles, défraiement maximum : 60km. 

Contacter le secrétariat ou envoyer candidature par mail.

Nous contacter

 Téléphone : +33 (0)4 79 54 41 81

Coordonnées détaillées et accès : cliquez ici

 
LFLB °C
    Ferienhaus Ostsee
[source: ADDS]
METAR
LFLB 201330Z AUTO 01006KT CAVOK 30/16 Q1012 TEMPO VRB15G30KT 2500 TSRA BKN050CB =
TAF
TAF LFLB 201100Z 2012/2112 26012KT 9999 SCT070TCU TEMPO 2014/2024 4000 SHRA FEW060CB BKN080TCU PROB40 TEMPO 2015/2019 VRB15G30KT 2500 TSRA BKN050CB BECMG 2100/2102 18010KT NSC TEMPO 2105/2108 4500 SHRA SCT030TCU BECMG 2110/2112 33010KT SCT050TCU =
SR / SS: 04:07 / 19:18 UTC (Lever/Coucher du soleil le 2018-07-20)
JSN Boot template designed by JoomlaShine.com